GEFSMW_con_prob3kmehi_198.txt.gz
EHI
20 20 19 18 19 23 29 32 32 32 32 30 27 24 21 20 19 18 18 16 15 15 15 15 16 15 11 7 4 1 1 1 2 2 1 0 0 1 0 0 0 0 0
21 21 20 20 22 24 28 32 33 32 33 32 28 24 23 21 20 19 20 19 16 14 13 13 15 14 12 9 6 4 2 1 1 1 0 0 0 1 0 0 0 0 1
19 19 19 21 23 24 27 31 33 33 33 32 28 25 24 23 21 22 23 21 17 13 11 11 13 13 11 9 9 7 4 1 0 0 0 0 1 1 0 0 0 1 2
17 18 19 20 21 21 23 27 31 33 32 29 26 24 23 22 21 22 21 18 14 11 9 10 12 12 10 9 9 8 4 1 0 0 1 1 1 1 0 0 0 0 1
18 19 19 18 17 18 20 24 29 32 32 28 25 23 21 21 21 19 16 13 12 10 8 9 10 11 10 9 9 8 5 2 1 1 1 1 1 1 0 0 0 0 0
19 20 21 19 17 17 19 23 26 29 30 28 25 22 20 21 20 17 14 11 10 10 8 7 8 10 10 10 9 8 6 3 3 3 2 1 1 0 1 1 0 0 0
17 19 21 21 20 19 22 25 26 26 27 26 23 20 18 19 18 16 14 11 10 10 8 7 7 9 9 8 7 7 6 5 5 5 3 2 1 1 2 2 1 1 0
14 16 21 24 22 21 22 24 23 23 22 22 21 18 15 14 13 14 14 11 10 9 7 6 5 6 6 5 5 6 6 6 6 4 3 3 3 3 3 3 2 2 1
13 15 21 25 23 20 20 20 19 18 17 17 16 14 12 12 12 13 13 11 9 7 4 4 4 4 4 3 3 4 5 6 6 4 3 3 3 3 3 3 4 4 3
13 15 20 21 18 16 16 15 14 13 12 12 11 10 10 11 12 12 12 10 8 4 2 3 4 3 2 2 3 4 3 4 4 4 4 3 4 4 5 5 5 5 5
12 14 16 14 12 12 12 12 11 9 8 8 9 9 9 9 9 9 9 8 5 2 2 2 2 1 0 1 2 3 2 1 2 3 3 4 5 6 6 6 6 6 6
10 11 12 10 8 8 9 9 9 8 7 7 9 10 9 8 7 7 7 6 3 1 1 1 0 0 0 0 1 1 0 0 0 1 3 5 6 6 6 6 6 6 6
7 7 7 6 5 5 6 7 8 8 7 7 8 8 8 8 6 6 7 7 3 0 0 0 0 0 0 0 0 0 0 0 0 1 3 5 6 6 6 6 6 6 5
5 5 4 4 3 4 5 5 6 7 7 7 6 5 6 7 6 5 6 6 2 0 0 0 0 0 0 0 0 0 0 0 0 1 3 5 6 6 4 5 6 5 4
4 3 3 3 3 4 5 5 5 5 5 5 5 4 3 5 5 4 4 3 1 0 0 0 0 0 0 0 0 0 0 0 1 1 3 5 5 4 2 2 3 2 2
2 3 3 3 4 4 4 5 5 3 2 2 3 3 3 4 4 3 2 1 0 0 0 0 0 0 0 0 0 0 0 1 2 3 3 4 3 2 0 0 1 0 0
1 2 3 3 4 5 4 5 5 4 3 2 2 3 3 3 2 1 1 0 0 0 0 0 0 0 0 0 0 0 1 2 3 3 3 3 2 0 0 0 0 0 0
2 2 3 3 4 5 6 7 6 5 4 4 2 1 1 1 1 0 0 0 0 0 0 0 0 0 0 0 0 0 1 2 3 3 3 3 2 1 0 0 0 0 0
3 3 3 4 5 6 7 8 6 4 3 3 1 0 0 0 0 0 0 0 0 0 0 0 0 0 0 0 0 0 1 2 3 3 3 3 2 1 0 0 0 0 0
4 3 3 4 5 5 6 6 5 3 1 1 0 0 0 0 0 0 0 0 0 0 0 0 0 0 0 0 0 0 1 2 2 2 2 2 1 0 0 0 0 0 0
5 4 3 4 3 3 3 3 2 1 0 0 0 0 0 0 0 0 0 0 0 0 0 0 0 0 0 0 0 0 0 1 1 1 1 0 0 0 0 0 0 0 0
6 4 3 2 2 2 1 1 1 0 0 0 0 0 0 0 0 0 0 0 0 0 0 0 0 0 0 0 0 0 0 0 0 0 0 0 0 0 0 0 0 0 0
4 3 1 1 1 1 1 0 0 0 0 0 0 0 0 0 0 0 0 0 0 0 0 0 0 0 0 0 0 0 0 0 0 0 0 0 0 0 0 0 0 0 0
4 2 1 1 0 1 1 0 0 0 0 0 0 0 0 0 0 0 0 0 0 0 0 0 0 0 0 0 0 0 0 0 0 0 0 0 0 0 0 0 0 0 0
5 3 2 1 0 0 0 0 0 0 0 0 0 0 0 0 0 0 0 0 0 0 0 0 0 0 0 0 0 0 0 0 0 0 0 0 0 0 0 0 0 0 0
5 4 3 1 0 0 0 0 0 0 0 0 0 0 0 0 0 0 0 0 0 0 0 0 0 0 0 0 0 0 0 0 0 0 0 0 0 0 0 0 0 0 0

GEFSMW_con_prob3kmehi_204.txt.gz
EHI
41 47 49 50 51 50 45 42 39 39 41 42 41 40 40 37 33 30 31 34 38 39 36 33 32 32 30 25 18 14 12 7 3 2 1 2 3 5 6 6 5 5 5
41 46 49 49 50 48 45 43 43 41 40 40 39 39 38 36 33 31 32 33 35 35 34 33 30 28 27 23 18 16 12 7 2 1 0 1 1 2 3 4 4 5 5
40 44 47 47 48 47 46 45 45 42 39 37 35 35 35 35 34 34 33 33 32 30 29 28 26 23 21 19 18 18 14 7 2 0 0 0 0 1 1 2 3 4 5
38 42 45 45 45 43 43 44 44 42 38 36 33 32 33 34 33 34 34 32 29 26 24 22 20 19 17 17 17 17 15 9 2 0 0 0 0 1 2 2 3 4 4
38 41 44 44 42 38 38 40 42 41 39 36 34 32 32 32 31 30 31 29 26 23 20 19 18 17 17 17 16 15 14 9 3 1 1 0 0 1 2 4 4 3 3
35 38 41 42 41 38 37 38 39 40 40 38 35 33 32 31 29 28 27 24 22 20 18 18 18 18 18 17 15 14 12 9 5 3 2 1 1 0 1 3 3 3 2
30 33 36 40 43 40 37 36 37 38 39 38 37 34 32 30 28 26 22 20 18 17 16 17 18 19 18 15 13 13 12 9 6 4 3 2 2 1 1 3 3 3 3
26 29 33 38 41 39 36 35 36 37 36 35 34 33 30 27 26 23 20 18 17 16 16 17 18 19 16 13 11 11 10 8 6 3 2 2 3 3 3 4 4 4 4
22 26 31 35 36 36 35 34 35 34 33 31 30 28 26 25 23 21 19 18 17 16 16 17 18 17 13 10 9 8 6 5 3 1 0 1 2 3 4 5 6 5 5
20 24 28 30 31 32 34 33 32 30 28 26 25 23 22 22 21 20 19 18 17 16 15 15 15 14 10 7 6 5 4 3 2 1 0 0 0 1 3 5 6 6 6
19 21 24 26 27 29 31 30 27 25 22 21 20 19 19 19 20 18 17 15 14 14 13 13 12 10 7 5 4 3 3 2 1 0 0 0 0 0 1 3 5 5 6
18 21 23 24 23 23 25 24 22 20 19 18 17 17 18 18 17 16 13 11 11 11 11 11 9 6 4 3 3 3 2 1 0 0 0 0 0 0 0 1 2 4 4
18 21 24 23 20 18 18 19 18 16 17 17 16 17 19 18 16 14 13 11 10 8 8 8 6 4 3 3 3 1 1 0 0 0 0 0 0 0 0 1 2 3 3
18 20 22 21 18 15 15 16 15 14 15 16 15 16 18 18 15 13 12 11 8 7 7 6 4 3 3 3 2 1 0 0 0 0 0 0 0 0 0 1 2 3 3
14 15 16 18 17 14 14 14 13 12 14 15 15 16 16 15 12 9 9 9 7 7 7 5 3 3 3 3 2 1 0 0 0 0 0 0 0 0 0 1 2 2 1
9 9 11 15 16 13 12 12 10 9 11 13 13 13 11 9 6 3 4 7 7 7 7 5 3 3 2 1 1 0 0 0 0 0 0 0 0 0 0 0 1 1 0
7 7 10 14 15 12 12 11 8 6 7 8 8 8 6 4 2 1 3 5 6 5 4 3 3 2 1 0 0 0 0 0 0 0 0 0 0 0 0 0 0 0 0
9 9 11 15 15 13 12 10 7 5 4 3 3 3 2 1 1 2 4 5 5 4 3 4 3 2 0 0 0 0 0 0 0 0 0 0 0 0 0 1 1 0 0
11 11 13 15 15 14 12 9 6 4 4 2 1 1 1 2 3 4 5 5 5 4 4 5 4 2 0 0 0 0 0 0 0 0 0 0 0 0 0 1 1 0 0
13 12 11 12 13 14 12 10 8 6 5 2 1 0 1 2 4 5 5 4 4 3 4 4 3 2 1 0 0 0 0 0 0 0 0 0 0 0 0 0 0 0 0
11 9 9 9 10 10 10 8 7 6 5 2 0 0 0 1 4 5 4 2 2 1 1 2 3 3 2 0 0 0 0 0 0 0 0 0 0 0 0 0 0 0 0
7 6 7 8 9 8 7 6 5 5 5 3 1 0 0 1 3 4 3 1 0 0 0 1 2 2 1 0 0 0 0 0 0 0 0 0 0 0 0 0 0 0 0
5 4 6 8 8 7 6 5 5 5 5 4 1 0 0 1 2 3 1 0 0 0 0 0 0 0 0 0 0 0 0 0 0 0 0 0 0 0 0 0 0 0 0
5 4 4 5 6 6 5 5 5 5 4 3 1 0 0 1 1 1 0 0 0 0 0 0 0 0 0 0 0 0 0 0 0 0 0 0 0 0 0 0 0 0 0
6 5 4 2 3 4 4 4 4 4 3 2 1 0 0 0 1 0 0 0 0 0 0 0 0 0 0 0 0 0 0 0 0 0 0 0 0 0 0 0 0 0 0
6 6 4 2 1 2 3 3 3 3 3 2 1 0 0 0 1 0 0 0 0 0 0 0 0 0 0 0 0 0 0 0 0 0 0 0 0 0 0 0 0 0 0

GEFSMW_con_prob3kmehi_210.txt.gz
EHI
34 34 32 30 30 29 26 25 28 31 30 27 27 26 23 20 17 16 17 18 19 20 19 15 12 10 9 8 6 3 2 1 0 0 0 0 0 0 0 0 0 0 0
33 32 31 30 29 28 26 25 26 29 29 26 25 24 22 20 17 15 15 15 18 19 18 15 12 9 8 7 5 3 2 1 0 0 0 0 0 0 0 0 0 0 0
29 29 28 27 27 26 25 24 24 26 27 25 23 22 22 20 18 15 13 11 13 16 16 14 11 8 7 6 5 4 3 2 1 0 0 0 0 0 0 0 0 0 0
25 25 25 24 24 24 23 22 22 24 26 24 22 20 19 18 18 16 12 9 9 12 13 11 9 7 6 6 5 5 5 3 1 0 0 0 0 0 0 0 0 0 0
23 24 22 20 20 22 22 21 22 24 24 23 20 18 16 15 16 15 12 9 9 10 10 9 6 5 6 6 6 6 5 3 1 0 0 0 0 0 0 0 0 0 0
22 23 22 18 17 19 20 19 20 20 20 19 17 16 15 14 14 13 12 11 11 10 9 6 4 4 5 5 5 4 4 3 1 0 0 0 0 0 0 0 0 0 0
19 22 24 19 14 15 16 16 16 15 15 14 15 16 16 14 13 13 12 11 10 9 8 5 2 2 3 4 3 2 2 1 1 0 0 0 0 0 0 0 0 0 0
13 19 23 20 14 12 13 14 13 12 12 13 14 15 15 14 12 12 11 9 8 8 6 4 3 2 2 2 2 1 1 1 0 0 0 0 0 0 0 0 0 0 0
8 13 18 17 15 13 11 11 10 9 10 12 13 13 12 11 10 10 9 7 6 6 6 5 3 3 2 2 1 1 1 0 0 0 0 0 0 0 0 0 0 0 0
6 9 13 15 14 12 9 7 7 7 8 9 10 10 9 7 7 7 7 7 6 6 5 4 3 3 3 3 2 2 1 0 0 0 0 0 0 0 0 0 0 0 0
6 7 9 11 11 8 5 4 5 6 7 7 8 8 7 6 5 5 6 6 6 5 4 3 3 3 3 3 3 3 2 1 0 0 0 0 0 0 0 0 0 0 0
5 5 5 7 7 4 2 2 4 6 6 6 6 6 6 5 4 4 5 6 5 4 3 3 3 3 3 3 3 3 3 2 1 0 0 0 0 0 0 0 0 0 0
5 4 4 4 3 1 0 1 2 4 6 5 5 5 4 4 3 3 4 4 4 3 3 3 3 3 3 3 3 3 3 3 2 1 0 0 0 0 0 0 0 0 0
4 3 2 2 1 0 0 0 1 3 4 4 3 3 3 3 3 3 3 3 3 3 3 3 3 3 3 3 3 3 3 3 2 1 0 0 0 0 0 0 0 0 0
2 2 1 1 1 1 1 0 0 1 2 2 2 2 2 2 2 2 2 2 2 2 2 2 2 2 2 2 2 3 2 2 2 1 0 0 0 0 0 0 0 0 0
1 2 2 2 2 2 2 1 0 0 1 1 1 0 1 1 1 1 1 2 2 1 1 1 1 1 1 1 1 1 1 1 1 1 1 0 0 0 0 0 0 0 0
2 2 1 1 1 1 1 1 0 0 0 0 0 0 0 0 0 0 0 1 1 0 0 0 0 0 0 0 0 0 0 0 0 0 1 0 0 0 0 0 0 0 0
1 1 0 0 0 0 0 0 0 0 0 0 0 0 0 0 0 0 0 0 0 0 0 0 0 0 0 0 0 0 0 0 0 0 0 0 0 0 0 0 0 0 0
0 0 0 0 0 0 0 0 0 0 0 0 0 0 0 0 0 0 0 0 0 0 0 0 0 0 0 0 0 0 0 0 0 0 0 0 0 0 0 0 0 0 0
0 0 0 0 0 0 0 0 0 0 0 0 0 0 0 0 0 0 0 0 0 0 0 0 0 0 0 0 0 0 0 0 0 0 0 0 0 0 0 0 0 0 0
0 0 0 0 0 0 0 0 0 0 0 0 0 0 0 0 0 0 0 0 0 0 0 0 0 0 0 0 0 0 0 0 0 0 0 0 0 0 0 0 0 0 0
0 0 0 0 0 0 0 0 0 0 0 0 0 0 0 0 0 0 0 0 0 0 0 0 0 0 0 0 0 0 0 0 0 0 0 0 0 0 0 0 0 0 0
0 0 0 0 0 0 0 0 0 0 0 0 0 0 0 0 0 0 0 0 0 0 0 0 0 0 0 0 0 0 0 0 0 0 0 0 0 0 0 0 0 0 0
0 0 0 0 0 0 0 0 0 0 0 0 0 0 0 0 0 0 0 0 0 0 0 0 0 0 0 0 0 0 0 0 0 0 0 0 0 0 0 0 0 0 0
0 0 0 0 0 0 0 0 0 0 0 0 0 0 0 0 0 0 0 0 0 0 0 0 0 0 0 0 0 0 0 0 0 0 0 0 0 0 0 0 0 0 0
0 0 0 0 0 0 0 0 0 0 0 0 0 0 0 0 0 0 0 0 0 0 0 0 0 0 0 0 0 0 0 0 0 0 0 0 0 0 0 0 0 0 0

GEFSMW_con_prob3kmehi_216.txt.gz
EHI
4 4 6 7 6 5 7 10 12 11 9 9 10 9 7 5 4 5 5 4 4 3 2 2 3 3 4 5 5 5 5 3 2 1 0 0 0 0 0 0 0 0 0
5 5 5 6 6 7 8 10 11 11 10 12 13 12 9 7 6 7 7 6 6 5 3 3 5 6 6 5 6 6 5 3 1 0 0 0 0 0 0 0 0 0 0
8 7 7 7 7 9 10 10 10 10 11 13 14 13 10 8 8 8 7 6 5 4 4 5 7 8 7 6 5 5 3 1 0 0 0 0 0 0 0 0 0 0 0
10 10 8 7 7 8 10 11 10 9 10 11 12 12 9 8 7 7 6 4 3 2 4 7 8 8 7 5 2 2 2 1 0 0 0 0 0 0 0 0 0 0 0
10 9 8 7 8 8 9 10 10 9 8 8 8 9 9 7 6 5 5 4 3 3 4 6 7 7 6 4 1 0 0 0 0 0 0 0 0 0 0 0 0 0 0
8 8 7 7 8 8 9 10 10 9 7 6 6 7 8 7 5 4 4 4 4 3 4 6 6 6 6 4 2 1 1 0 0 0 0 0 0 0 0 0 0 0 0
6 6 6 6 6 6 7 8 8 7 6 6 6 6 7 7 6 4 4 4 3 3 4 6 6 6 6 4 3 3 2 1 0 0 0 0 0 0 0 0 0 0 0
3 4 5 5 4 3 4 5 5 5 6 6 6 6 6 6 6 6 5 4 3 4 5 6 6 6 5 4 3 3 3 2 1 1 1 0 0 0 0 0 0 0 0
1 3 4 4 3 2 2 2 2 3 5 6 6 6 7 7 6 5 4 3 3 3 4 5 6 5 4 3 3 3 3 3 3 2 2 1 1 1 0 0 0 0 0
1 2 3 3 2 1 2 2 3 4 5 5 5 5 7 7 6 4 3 3 3 3 4 4 4 4 3 3 3 3 3 3 3 3 3 3 2 2 1 0 0 0 0
1 2 3 2 1 0 1 2 3 4 5 5 4 4 4 4 3 3 3 3 3 3 4 4 4 3 3 3 3 3 3 3 3 3 3 3 3 3 2 1 0 0 0
2 3 3 1 0 0 0 1 2 4 5 5 3 2 2 2 2 3 3 3 3 3 3 4 3 3 3 3 3 3 3 3 3 3 3 3 3 3 2 1 0 0 0
3 3 2 1 0 0 0 0 1 3 4 3 3 2 2 2 3 3 3 3 3 3 3 3 3 3 3 3 3 3 3 3 3 3 3 3 3 3 2 1 0 0 0
3 2 1 0 0 0 0 0 0 1 1 1 2 3 2 2 3 3 3 3 3 3 3 3 3 3 3 3 2 2 3 3 3 3 3 3 3 2 1 0 0 0 0
1 1 1 0 0 0 0 0 0 0 0 0 0 1 1 1 2 2 2 2 2 2 2 2 2 2 2 1 1 1 1 2 2 2 2 2 2 1 1 0 0 0 0
0 0 0 0 0 0 0 0 0 0 0 0 0 0 0 0 1 1 1 1 1 1 1 1 1 1 1 0 0 0 0 1 1 1 1 1 0 0 0 0 0 0 0
0 0 0 0 0 0 0 0 0 0 0 0 0 0 0 0 0 0 0 0 0 0 0 0 0 0 0 0 0 0 0 0 0 0 0 0 0 0 0 0 0 0 0
0 0 0 0 0 0 0 0 0 0 0 0 0 0 0 0 0 0 0 0 0 0 0 0 0 0 0 0 0 0 0 0 0 0 0 0 0 0 0 0 0 0 0
0 0 0 0 0 0 0 0 0 0 0 0 0 0 0 0 0 0 0 0 0 0 0 0 0 0 0 0 0 0 0 0 0 0 0 0 0 0 0 0 0 0 0
0 0 0 0 0 0 0 0 0 0 0 0 0 0 0 0 0 0 0 0 0 0 0 0 0 0 0 0 0 0 0 0 0 0 0 0 0 0 0 0 0 0 0
0 0 0 0 0 0 0 0 0 0 0 0 0 0 0 0 0 0 0 0 0 0 0 0 0 0 0 0 0 0 0 0 0 0 0 0 0 0 0 0 0 0 0
0 0 0 0 0 0 0 0 0 0 0 0 0 0 0 0 0 0 0 0 0 0 0 0 0 0 0 0 0 0 0 0 0 0 0 0 0 0 0 0 0 0 0
0 0 0 0 0 0 0 0 0 0 0 0 0 0 0 0 0 0 0 0 0 0 0 0 0 0 0 0 0 0 0 0 0 0 0 0 0 0 0 0 0 0 0
0 0 0 0 0 0 0 0 0 0 0 0 0 0 0 0 0 0 0 0 0 0 0 0 0 0 0 0 0 0 0 0 0 0 0 0 0 0 0 0 0 0 0
0 0 0 0 0 0 0 0 0 0 0 0 0 0 0 0 0 0 0 0 0 0 0 0 0 0 0 0 0 0 0 0 0 0 0 0 0 0 0 0 0 0 0
0 0 0 0 0 0 0 0 0 0 0 0 0 0 0 0 0 0 0 0 0 0 0 0 0 0 0 0 0 0 0 0 0 0 0 0 0 0 0 0 0 0 0

GEFSMW_con_prob3kmehi_222.txt.gz
EHI
12 10 8 9 16 25 29 28 25 23 22 22 22 20 16 11 7 5 6 8 10 13 15 15 14 14 14 13 12 13 14 12 11 9 5 3 4 5 5 5 4 2 1
11 10 8 9 15 24 27 25 23 22 20 20 20 19 15 11 7 4 6 10 13 14 14 14 14 13 13 15 16 16 15 13 12 11 8 4 4 4 4 5 4 3 2
11 11 11 10 16 24 26 23 22 21 19 18 16 16 16 12 8 6 7 11 14 14 13 12 12 10 11 14 16 16 15 14 13 12 10 7 4 4 5 4 3 3 3
13 12 12 14 19 25 26 24 23 21 19 16 14 14 15 13 11 9 10 11 11 11 11 10 8 8 9 11 13 14 14 13 13 12 11 9 7 6 5 3 2 2 3
13 13 12 15 19 23 25 24 22 20 17 14 12 11 12 12 13 12 12 11 10 9 8 7 6 7 9 9 10 11 12 12 11 11 10 9 8 7 5 2 1 2 2
12 12 13 14 17 20 20 19 17 14 13 11 10 9 8 10 13 15 14 13 11 8 6 5 6 7 8 8 8 9 9 9 9 9 9 7 6 5 3 1 1 1 1
10 11 13 15 16 17 16 15 13 11 10 12 12 10 8 9 13 15 15 15 13 10 7 7 8 8 7 7 7 7 7 7 7 8 8 6 5 3 2 0 0 0 0
8 10 13 14 15 15 14 13 13 12 12 13 14 13 10 9 11 13 14 14 12 10 9 10 9 7 5 5 5 5 5 6 7 7 7 6 4 3 2 2 1 1 0
8 9 11 14 15 14 12 10 11 13 13 12 12 12 10 10 10 11 12 12 11 9 9 9 8 6 4 4 4 4 5 6 7 7 7 6 5 4 4 4 4 3 2
9 10 11 14 15 12 10 8 9 12 12 9 8 7 8 9 9 11 12 11 10 9 7 6 5 4 4 5 4 5 6 6 7 6 6 6 6 6 6 6 7 5 4
8 9 11 12 11 10 9 8 8 10 10 8 6 5 6 8 9 10 10 10 9 7 6 5 4 4 4 4 5 5 6 6 6 6 6 5 5 6 6 7 7 7 6
5 7 9 9 8 7 7 6 5 7 8 8 8 7 7 8 8 9 9 8 6 4 4 4 4 4 3 3 4 4 5 6 6 6 5 4 4 4 5 6 6 6 7
5 6 6 5 5 5 4 3 3 4 5 7 9 9 10 9 9 8 7 6 5 3 2 3 4 3 3 3 3 3 4 5 6 5 4 3 3 3 4 4 4 5 6
5 5 4 3 2 2 2 2 3 3 4 6 8 11 11 11 10 8 5 4 4 3 3 3 3 3 3 3 3 3 3 4 4 4 3 3 3 3 3 3 3 4 5
3 3 3 1 1 1 1 2 3 3 3 4 7 9 11 10 10 7 5 3 3 3 3 3 3 3 2 2 3 3 3 3 3 3 3 3 3 3 2 2 2 3 4
1 1 1 1 0 0 1 2 3 3 3 3 3 5 6 7 6 5 4 3 3 3 3 2 2 1 1 1 1 2 3 3 3 3 2 2 2 1 1 1 1 1 1
0 0 0 0 0 1 3 3 3 2 2 1 1 1 2 3 3 2 2 3 4 4 2 1 1 0 0 0 0 1 2 2 2 1 1 1 1 0 0 0 0 0 0
0 0 0 0 0 0 2 2 1 1 1 0 0 0 0 1 2 1 1 3 3 3 2 1 1 1 0 0 0 0 1 1 1 0 0 0 0 0 0 0 0 0 0
0 0 0 0 0 0 0 0 0 0 0 0 0 0 0 0 1 2 3 3 3 3 3 3 2 2 1 0 0 0 0 0 0 0 0 0 0 0 0 0 0 0 0
0 0 0 0 0 0 0 0 0 0 0 0 0 0 0 0 1 2 3 3 3 3 3 3 3 3 2 1 0 0 0 0 0 0 0 0 0 0 0 0 0 0 0
0 0 0 0 0 0 0 0 0 0 0 0 0 0 0 0 1 2 3 3 3 3 3 2 2 3 2 1 0 0 0 0 0 0 0 0 0 0 0 0 0 0 0
0 0 0 0 0 0 0 0 0 0 0 0 0 0 0 0 1 2 3 3 3 3 2 2 1 1 1 1 0 0 0 0 0 0 0 0 0 0 0 0 0 0 0
0 0 0 0 0 0 0 0 0 0 0 0 0 0 0 0 0 1 1 2 2 1 1 1 0 0 0 0 0 0 0 0 0 0 0 0 0 0 0 0 0 0 0
0 0 0 0 0 0 0 1 0 0 0 0 0 0 0 0 0 0 0 1 1 0 0 0 0 0 0 0 0 0 0 0 0 0 0 0 0 0 0 0 0 0 0
0 0 0 0 0 0 0 0 0 0 0 0 0 0 0 0 0 0 0 0 0 0 0 0 0 0 0 0 0 0 0 0 1 0 0 0 0 0 0 0 0 0 0
0 0 0 0 0 0 0 0 0 0 0 0 0 0 0 0 0 0 0 0 0 0 0 0 0 0 0 0 0 0 0 0 1 0 0 0 0 0 0 0 0 0 0

GEFSMW_con_prob3kmehi_228.txt.gz
EHI
24 30 33 32 34 38 40 42 44 47 51 52 50 47 41 34 28 23 20 19 18 17 15 14 16 16 15 14 15 17 16 15 12 11 9 7 7 8 6 6 6 4 3
26 30 32 31 33 36 39 40 41 45 47 48 47 45 39 32 26 21 21 21 19 18 15 15 15 15 14 14 15 16 16 15 14 12 10 8 7 6 4 5 6 4 4
23 28 29 29 31 34 37 38 39 40 41 44 43 38 33 28 22 20 22 22 20 18 16 15 14 14 13 13 15 16 16 16 15 14 11 9 7 5 3 3 5 5 4
17 21 23 25 29 33 35 36 36 35 36 40 39 32 25 22 20 20 22 23 20 17 15 15 15 14 13 14 16 17 17 17 16 15 11 9 7 5 3 2 3 4 4
14 16 20 23 26 30 31 32 33 33 33 35 33 25 19 17 19 20 22 22 20 16 13 14 16 17 17 17 18 18 18 17 16 14 12 9 7 5 3 2 2 2 1
15 16 20 23 23 25 27 29 32 33 32 31 26 20 16 16 17 18 19 20 18 14 13 15 18 20 20 20 20 19 17 16 15 14 11 8 6 4 3 1 1 1 0
13 15 19 22 22 22 24 27 30 32 31 27 22 17 15 15 15 15 15 16 14 13 14 17 21 22 21 21 20 18 15 14 13 11 9 7 6 5 4 2 1 0 0
11 13 17 19 19 20 22 24 26 28 27 25 21 17 14 13 12 13 13 13 14 14 16 19 21 22 20 18 18 16 13 11 10 9 7 7 6 6 6 4 2 1 0
10 12 14 15 18 20 21 20 21 22 22 21 19 16 13 12 11 11 12 13 14 15 16 18 19 19 17 15 15 14 10 9 8 7 7 6 6 6 6 5 3 1 1
9 10 12 13 16 19 19 16 15 17 18 18 16 14 12 11 12 12 11 12 14 14 15 15 15 13 12 12 12 11 9 8 8 8 7 6 6 5 4 4 3 3 2
7 10 12 12 12 14 15 13 12 14 16 17 15 13 12 13 15 14 12 12 13 13 14 13 12 10 10 10 11 10 8 8 7 7 6 6 5 4 3 3 3 3 3
6 9 11 10 9 10 11 11 11 12 14 15 16 15 13 14 17 17 15 15 14 14 13 12 10 9 8 8 8 8 7 6 5 5 6 6 6 4 3 3 3 3 3
8 9 10 8 7 8 11 12 11 11 11 12 14 14 14 15 17 17 18 17 15 13 12 10 9 7 6 6 6 6 6 6 5 5 6 7 6 5 4 3 3 3 3
7 8 7 5 5 8 11 12 11 9 9 10 11 12 13 14 16 16 16 16 15 12 11 9 7 5 4 5 6 5 5 6 6 6 7 7 6 4 3 3 3 3 3
4 4 5 4 5 7 9 10 9 8 9 9 10 10 11 12 12 13 12 12 11 10 8 7 6 4 3 3 4 5 5 6 7 7 6 5 4 3 2 2 2 3 3
2 3 4 5 6 7 8 7 6 6 8 9 9 9 8 8 8 8 7 7 6 6 6 6 5 4 2 1 2 3 5 6 6 6 4 2 2 1 1 1 1 1 2
2 3 4 5 6 6 6 6 4 4 5 6 7 6 4 3 3 4 4 4 4 4 4 4 4 4 2 1 0 1 3 4 4 2 1 1 0 0 0 0 0 0 1
3 3 4 5 5 4 5 5 3 2 2 2 2 2 1 0 1 3 4 3 3 3 3 3 3 3 3 1 0 0 1 1 1 0 0 0 0 0 0 0 0 0 0
5 4 4 4 3 3 4 4 2 1 1 0 0 0 0 1 1 2 3 3 3 3 3 3 3 3 3 2 1 0 0 0 0 1 1 0 0 0 0 0 0 0 0
6 5 4 3 2 2 3 2 1 0 0 0 0 0 1 2 2 2 2 2 3 3 3 3 3 3 3 2 1 0 0 0 1 1 1 0 0 0 0 0 0 0 0
5 4 3 1 1 1 2 1 0 0 0 0 0 1 2 2 2 2 2 2 2 2 3 3 3 3 3 2 1 0 0 0 1 1 1 0 0 0 0 0 0 0 0
3 2 1 1 1 1 1 0 0 0 0 0 0 1 2 2 2 3 2 1 1 1 2 2 2 2 2 1 0 0 0 0 0 0 0 0 0 0 0 0 0 0 0
1 0 0 1 2 2 1 1 0 0 0 0 0 1 1 2 3 3 2 1 1 1 1 1 1 1 1 0 0 0 0 0 0 0 0 0 0 0 0 0 0 0 0
0 1 1 1 2 3 3 2 1 0 0 0 0 0 1 3 3 3 1 1 0 0 0 0 0 0 0 0 0 0 0 0 0 0 0 0 0 0 0 0 0 0 0
1 2 3 2 2 3 4 3 1 0 1 1 1 1 1 2 2 1 1 0 0 0 0 0 0 0 0 0 0 0 0 0 0 0 0 0 0 0 0 0 1 1 1
1 3 3 2 1 3 4 4 2 1 2 2 2 1 1 1 1 0 0 0 0 0 0 0 0 0 0 0 0 0 0 0 0 0 0 0 0 0 0 0 1 2 1

GEFSMW_con_prob3kmehi_234.txt.gz
EHI
11 12 12 15 17 17 17 18 19 19 20 22 22 20 16 12 9 6 5 4 4 3 3 4 4 5 6 5 4 3 2 1 0 0 0 0 0 0 0 0 0 0 0
11 10 11 15 17 18 19 20 20 20 20 20 21 20 17 13 9 6 5 4 3 2 3 4 5 5 5 5 4 3 1 0 0 0 0 0 0 0 0 0 0 0 0
9 9 11 15 18 19 20 20 20 20 19 17 17 18 16 11 7 4 3 2 1 2 3 4 5 5 5 4 3 2 1 0 0 0 0 0 0 0 0 0 0 0 0
7 8 11 14 15 16 18 19 19 19 17 14 12 12 11 8 4 3 2 1 0 1 3 5 6 6 6 5 5 2 1 0 0 0 0 0 0 0 0 0 0 0 0
7 7 9 11 12 12 15 17 17 16 14 12 9 8 8 6 4 2 1 0 0 0 2 4 6 7 7 7 7 4 1 0 0 0 1 1 1 0 0 0 0 0 0
8 7 7 8 9 11 13 15 15 12 9 8 5 5 6 6 3 2 1 0 0 0 1 2 5 7 8 8 8 6 3 1 1 1 1 2 2 1 0 0 0 0 0
8 7 6 7 8 9 10 12 11 7 4 3 2 3 4 4 2 1 0 0 0 0 1 2 4 6 7 7 7 6 5 3 2 1 2 3 2 1 0 0 0 0 0
9 7 5 5 6 7 8 8 6 4 2 1 1 2 3 2 1 0 0 0 0 0 1 1 3 5 6 6 6 5 5 4 4 3 3 3 3 1 0 0 0 0 0
8 6 4 4 4 5 6 5 4 3 2 2 3 3 3 2 1 0 0 0 0 0 0 0 2 4 6 6 6 5 4 4 5 5 5 4 3 2 1 0 0 0 0
6 4 3 2 3 3 3 3 2 1 1 2 3 4 3 1 0 0 0 0 0 0 0 0 0 2 5 6 6 5 4 3 4 4 5 4 3 3 2 1 0 0 0
4 3 1 1 1 1 1 1 0 0 0 1 2 3 1 0 0 0 0 0 0 0 1 1 0 1 4 6 6 4 3 3 3 3 4 3 3 3 3 2 1 1 0
3 2 1 0 0 0 0 0 0 0 0 0 2 2 1 0 0 0 0 0 1 1 2 1 0 0 2 5 5 4 3 3 3 3 3 3 3 3 3 3 3 2 1
2 1 0 0 0 0 0 0 0 0 0 0 1 1 1 0 0 0 1 1 1 2 2 1 0 0 1 3 4 3 3 3 3 3 3 3 3 3 3 3 3 3 3
1 0 0 0 0 0 0 0 0 0 0 0 0 0 0 0 0 0 1 1 1 1 1 0 0 0 0 2 3 3 3 3 3 3 3 3 3 3 3 3 3 3 3
1 1 0 0 0 0 0 0 0 0 0 0 0 1 1 0 0 0 1 1 0 0 0 0 0 0 0 1 2 3 3 3 3 3 3 2 2 2 2 2 2 2 2
2 2 1 0 0 0 0 0 1 1 1 1 1 1 1 0 0 0 0 0 0 0 0 0 0 0 0 1 1 2 2 2 2 2 1 1 1 1 1 1 1 1 1
3 3 2 1 0 0 0 0 1 1 1 0 0 1 1 0 0 0 0 0 0 0 0 0 0 0 0 0 0 1 1 1 1 1 0 0 0 0 0 0 0 0 0
3 3 2 1 0 0 0 0 1 1 0 0 0 0 0 0 0 0 0 0 0 0 0 0 0 0 0 0 0 0 0 0 0 0 0 0 0 0 0 0 0 0 0
2 2 1 0 0 0 0 0 0 0 0 0 0 0 1 1 1 1 0 0 0 0 0 0 0 0 0 0 0 0 0 0 0 0 0 0 0 0 0 0 0 0 0
1 1 0 0 0 0 0 0 0 0 0 0 0 0 1 2 2 1 0 0 0 0 0 0 0 0 0 0 0 0 0 0 0 0 0 0 0 0 0 0 0 0 0
0 0 0 0 0 0 0 0 0 0 0 0 0 0 1 2 1 1 0 0 0 0 0 0 0 0 0 0 0 0 0 0 0 0 0 0 0 0 0 0 0 0 0
0 0 0 0 0 0 0 0 0 0 0 0 0 0 0 0 0 0 0 0 0 0 0 0 0 0 0 0 0 0 0 0 0 0 0 0 0 0 0 0 0 0 0
0 0 0 0 0 0 0 0 0 0 0 0 0 0 0 0 0 0 0 0 0 0 0 0 0 0 0 0 0 0 0 0 0 0 0 0 0 0 0 0 0 0 0
0 0 0 0 0 0 0 0 0 0 0 0 0 0 0 0 0 0 0 0 0 0 0 0 0 0 0 0 0 0 0 0 0 0 0 0 0 0 0 0 0 0 0
0 0 0 0 0 0 0 0 0 0 0 0 0 0 0 0 0 0 0 0 0 0 0 0 0 0 0 0 0 0 0 0 0 0 0 0 0 0 0 0 0 0 0
0 0 0 0 0 0 0 0 0 0 0 0 0 0 0 0 0 0 0 0 0 0 0 0 0 0 0 0 0 0 0 0 0 0 0 0 0 0 0 0 0 0 0

GEFSMW_con_prob3kmehi_240.txt.gz
EHI
3 3 3 2 2 6 9 8 7 5 4 4 4 4 5 5 4 3 2 1 1 2 3 1 1 0 0 0 0 0 1 1 0 0 0 0 0 0 0 0 0 0 0
3 3 3 3 3 7 9 9 8 7 6 4 4 4 4 5 4 3 3 2 1 1 1 1 1 1 1 1 0 0 1 2 1 0 0 0 0 0 0 0 0 0 0
3 4 4 4 4 6 8 8 7 7 6 4 3 3 4 5 4 3 3 3 2 1 0 0 0 1 3 2 1 1 2 2 1 0 0 0 0 0 0 0 0 0 0
4 4 5 5 4 4 5 5 5 5 6 6 5 4 5 5 3 2 2 2 2 1 0 0 0 1 2 3 2 2 2 2 1 0 0 0 0 0 0 0 0 0 0
5 6 5 4 3 3 3 3 3 3 5 6 5 5 4 3 2 1 1 1 1 1 0 0 0 0 2 3 3 1 1 2 2 1 0 0 0 0 0 0 0 0 0
7 7 5 3 3 2 1 2 2 1 2 3 3 3 3 2 1 0 0 0 0 0 0 0 0 0 1 2 2 1 0 1 2 1 0 0 0 0 0 0 0 0 0
7 6 4 3 3 1 1 1 1 0 0 1 1 1 1 2 1 0 0 0 0 0 0 0 0 0 1 1 1 0 0 0 1 1 1 1 0 0 0 0 0 0 0
5 4 2 2 2 1 0 0 0 0 0 0 0 0 0 1 1 0 0 0 0 0 0 0 0 0 0 0 0 0 0 0 0 1 2 2 1 1 1 1 1 0 0
3 2 1 1 2 1 0 0 0 0 0 0 0 0 0 0 0 0 0 0 0 0 0 0 0 0 0 0 0 0 0 0 0 0 1 2 2 2 2 2 2 1 0
2 1 0 1 1 0 0 0 0 0 0 0 0 0 0 0 0 0 0 0 0 0 0 0 0 0 0 0 0 0 0 0 0 0 0 1 2 3 3 3 3 2 1
2 1 0 0 0 0 0 0 0 0 0 0 0 0 0 0 0 0 0 0 0 0 0 0 0 0 0 0 0 0 0 0 0 0 0 1 2 3 3 3 2 1 0
1 0 0 0 0 0 0 0 0 0 0 0 0 0 0 0 0 0 0 0 0 0 0 0 0 0 0 0 0 0 0 0 0 0 0 1 2 3 3 2 1 1 1
0 0 0 0 0 0 0 0 0 0 0 0 0 0 0 0 0 0 0 0 0 0 0 0 0 0 0 0 0 0 0 0 0 0 0 0 2 3 3 3 2 2 2
0 0 0 0 0 0 0 0 0 0 0 0 0 0 0 0 0 0 0 0 0 0 0 0 0 0 0 0 0 0 0 0 0 0 0 0 2 3 3 3 3 3 3
0 0 0 0 0 0 0 0 0 0 0 0 0 0 0 0 0 0 0 0 0 0 0 0 0 0 0 0 0 0 0 0 0 0 0 0 1 3 3 3 3 3 3
0 0 0 0 0 0 0 0 0 0 0 0 0 0 0 0 0 0 0 0 0 0 0 0 0 0 0 0 0 0 0 0 0 0 0 0 1 2 3 3 3 2 2
0 0 0 0 0 0 0 0 0 0 0 0 0 0 0 0 0 0 0 0 0 0 0 0 0 0 0 0 0 0 0 0 0 0 0 0 1 3 3 3 1 1 1
0 0 0 0 0 0 0 0 0 0 0 0 0 0 0 0 0 0 0 0 0 0 0 0 0 0 0 0 0 0 0 0 0 0 0 0 1 2 2 2 1 0 0
0 0 0 0 0 0 0 0 0 0 0 0 0 0 0 0 0 0 0 0 0 0 0 0 0 0 0 0 0 0 0 0 0 0 0 0 1 1 1 1 0 0 0
0 0 0 0 0 0 0 0 0 0 0 0 0 0 0 0 0 0 0 0 0 0 0 0 0 0 0 0 0 0 0 0 0 0 0 0 0 0 0 0 0 0 0
0 0 0 0 0 0 0 0 0 0 0 0 0 0 0 0 0 0 0 0 0 0 0 0 0 0 0 0 0 0 0 0 0 0 0 0 0 0 0 0 0 0 0
0 0 0 0 0 0 0 0 0 0 0 0 0 0 0 0 0 0 0 0 0 0 0 0 0 0 0 0 0 0 0 0 0 0 0 0 0 0 0 0 0 0 0
0 0 0 0 0 0 0 0 0 0 0 0 0 0 0 0 0 0 0 0 0 0 0 0 0 0 0 0 0 0 0 0 0 0 0 0 0 0 0 0 0 0 0
0 0 0 0 0 0 0 0 0 0 0 0 0 0 0 0 0 0 0 0 0 0 0 0 0 0 0 0 0 0 0 0 0 0 0 0 0 0 0 0 0 0 0
0 0 0 0 0 0 0 0 0 0 0 0 0 0 0 0 0 0 0 0 0 0 0 0 0 0 0 0 0 0 0 0 0 0 0 0 0 0 0 0 0 0 0
0 0 0 0 0 0 0 0 0 0 0 0 0 0 0 0 0 0 0 0 0 0 0 0 0 0 0 0 0 0 0 0 0 0 0 0 0 0 0 0 0 0 0